アトラス彗星

C/2023 C2 ( ATLAS )

English version
Home page
Updated on September 3, 2024

---------------------------------------------------------------------

・ プロフィール

発見日 2023年2月1日
発見光度 19.1等
発見者 Asteroid Terrestrial-Impact Last Alert System (ATLAS) search program

・ 写真集

・ 軌道要素

Epoch 2024 Oct. 17.0 TT = JDT 2460600.5
T 2024 Nov. 16.81317 TT                                 Rudenko
q   2.3684825            (2000.0)            P               Q
z  +0.0003384      Peri.  357.45793     +0.48931615     +0.59225589
 +/-0.0000005      Node   301.00433     -0.78638806     -0.01771495
e   0.9991985      Incl.   48.31945     -0.37704580     +0.80555518
>From 514 observations 2023 Feb. 1-2024 Aug. 31, mean residual 0".4.

・ 星図

・ 光度変化

        m1 = 7.0 + 5 logΔ + 10.0 log r

---------------------------------------------------------------------

軌道要素はM.P.E.C. 2024-R10に掲載されたものです。
星図はステラナビゲータ Ver.11 (アストロアーツ) で作成したものです。
光度グラフはComet for Windowsで作成したものです。

---------------------------------------------------------------------

Copyright(C) Seiichi Yoshida (comet@aerith.net). All rights reserved.